Location: Platte
(43.3870°N, 98.8440°W)
Time: 06:39:52
(UTC-05:00)

Landsat 7 - Visible Passes

Search period start: 02 September 2014 00:00
Search period end: 12 September 2014 00:00
Orbit: 702 x 703 km, 98.2° (Epoch: 02 September)

Date Brightness Start Highest point End Pass type
(mag) Time Alt. Az. Time Alt. Az. Time Alt. Az.
02 Sep 5.9 00:06:53 23° WNW 00:06:53 23° WNW 00:09:19 10° NW visible
02 Sep 6.0 21:32:29 10° ENE 21:33:08 11° ENE 21:34:08 10° NE visible
02 Sep 4.6 23:11:23 48° N 23:11:23 48° N 23:14:51 10° NNW visible
03 Sep 5.2 22:15:52 25° NE 22:15:52 25° NE 22:19:14 10° N visible
03 Sep 5.7 23:54:46 27° NW 23:54:46 27° NW 23:57:20 10° NNW visible
04 Sep 4.7 22:59:15 43° NNE 22:59:15 43° NNE 23:02:35 10° N visible
05 Sep 6.6 00:38:09 11° WNW 00:38:09 11° WNW 00:38:39 10° WNW visible
05 Sep 5.5 22:03:44 20° NE 22:03:44 20° NE 22:06:40 10° NNE visible
05 Sep 5.5 23:42:38 30° NW 23:42:38 30° NW 23:45:17 10° NNW visible
06 Sep 4.9 22:47:07 36° NNE 22:47:07 36° NNE 22:50:16 10° N visible
07 Sep 6.5 00:26:01 14° WNW 00:26:01 14° WNW 00:27:05 10° NW visible
07 Sep 5.7 21:51:37 16° NE 21:51:37 16° NE 21:53:58 10° NNE visible
07 Sep 5.4 23:30:30 32° NNW 23:30:30 32° NNW 23:33:09 10° NNW visible
08 Sep 5.1 22:35:00 30° NNE 22:35:00 30° NNE 22:37:54 10° N visible
09 Sep 6.4 00:13:53 17° NW 00:13:53 17° NW 00:15:17 10° NW visible
09 Sep 5.9 21:39:29 12° NE 21:39:29 12° NE 21:40:58 10° NE visible
09 Sep 5.4 23:18:22 33° NNW 23:18:22 33° NNW 23:20:57 10° NNW visible
10 Sep 5.4 22:22:52 24° NE 22:22:52 24° NE 22:25:28 10° N visible
11 Sep 6.3 00:01:45 19° NW 00:01:45 19° NW 00:03:20 10° NNW visible
11 Sep 5.4 23:06:15 31° N 23:06:15 31° N 23:08:42 10° N visible
